Regional Weather Roundup
Issued by NWS Cleveland, OH

Home | Current Version | Previous Version | Graphics & Text | Print | Product List | Glossary On
Versions: 1 2 3 4 5 6 7 8 9 10 11 12 13 14 15 16 17 18 19 20 21 22 23 24 25 26 27 28 29 30 31 32 33 34 35 36 37 38 39 40 41 42 43 44 45 46 47 48 49 50
000
ASUS41 KCLE 110610
RWRCLE
OHIO REGIONAL WEATHER ROUNDUP
NATIONAL WEATHER SERVICE CLEVELAND, OH
100 AM EST MON DEC 11 2017

NOTE: "FAIR" INDICATES FEW OR NO CLOUDS BELOW 12,000 FEET WITH NO
SIGNIFICANT WEATHER AND/OR OBSTRUCTIONS TO VISIBILITY.

OHZ001>008-015>018-024>027-034-035-043-044-110700-
   NORTHWEST OHIO

CITY           SKY/WX    TMP DP  RH WIND       PRES   REMARKS
DEFIANCE       CLOUDY    29  21  72 NW9       30.05R WCI  20
FINDLAY        CLOUDY    31  23  72 W10       30.01R WCI  22
TOLEDO EXPRESS PTCLDY    27  23  85 NW8       30.02R WCI  19
TOLEDO EXEC    CLOUDY    30  22  72 NW13      30.02R WCI  20
LIMA           CLOUDY    30  24  78 NW12      30.02R WCI  20
$$

OHZ009>014-019>023-028>033-038-089-110700-
   NORTHEAST OHIO

CITY           SKY/WX    TMP DP  RH WIND       PRES   REMARKS
CLE-HOPKINS    CLOUDY    31  22  69 W10       29.99R WCI  22
CLE-LAKEFRONT  CLOUDY    32  22  66 SW13      29.96R WCI  22
CUY CO. ARPT   NOT AVBL
LORAIN-ELYRIA  CLOUDY    29  18  63 W8        29.98R WCI  21
ASHTABULA      LGT SNOW  27  24  89 SW7       29.93S FOG     WCI  19
AKRON-CANTON   CLOUDY    31  19  61 W6        29.95R WCI  25
WOOSTER        CLOUDY    29  21  72 W8        29.96R WCI  21
MANSFIELD      CLOUDY    29  21  72 W7        29.96R WCI  22
YOUNGSTOWN     FLURRIES  29  20  69 W8        29.93S WCI  21
$$

OHZ042-051>053-060>062-070>072-077>081-110700-
  SOUTHWEST OHIO

CITY           SKY/WX    TMP DP  RH WIND       PRES   REMARKS
CINC-COVINGTON CLEAR     27  22  81 W8        30.07R WCI  19
CINC-LUNKEN    CLEAR     32  23  69 W6        30.10R WCI  26
HAMILTON       CLEAR     24  19  81 W3        30.08R
DAYTON         CLOUDY    30  24  78 NW10      30.04R WCI  21
WRIGHT-PAT AFB CLOUDY    32  24  72 NW7       30.04R WCI  25
DAYTON GENERAL CLEAR     29  20  69 W7        30.04R WCI  22
WILMINGTON     CLEAR     29  22  75 W12       30.03R WCI  19
$$

OHZ036-037-039>041-045>050-054>059-063>069-073>076-082>088-110700-
  CENTRAL AND SOUTHEAST OHIO

CITY           SKY/WX    TMP DP  RH WIND       PRES   REMARKS
COLUMBUS       CLOUDY    33  23  66 W8        30.01R WCI  26
OSU AIRPORT    CLOUDY    32  25  75 W9        30.01R WCI  24
BOLTON FIELD   CLOUDY    32  24  71 W6        30.02R WCI  26
RICKENBACK AFB CLOUDY    32  24  71 W9        30.02R WCI  24
NEWARK         CLOUDY    33  22  63 SW10      29.99R WCI  25
MARION         CLOUDY    30  22  72 NW13      30.00R WCI  20
LANCASTER      CLOUDY    33  23  66 W9        30.01R WCI  25
ZANESVILLE     CLOUDY    33  19  56 SW6       29.99R WCI  28
NEW PHILLY     NOT AVBL
$$



USA.gov is the U.S. government's official web portal to all federal, state and local government web resources and services.